Location: Lafig�re
(44.4503°N, 4.0357°E)
Time: 00:46:34
(UTC+00:00)

ARGOS - Pass Details

Date: 29 January 2021
Orbit: 821 x 834 km, 98.4° (Epoch: 03 March)

Event Time Altitude Azimuth Distance (km) Brightness Sun altitude
Rises 18:02:24 0° 144° (SE) 3,344 6.1 -13.2°
Reaches altitude 10° 18:04:51 10° 137° (SE) 2,417 5.3 -13.7°
Maximum altitude 18:09:50 42° 68° (ENE) 1,173 3.5 -14.5°
Drops below altitude 10° 18:14:52 10° 360° (N) 2,440 5.5 -15.4°
Sets 18:17:20 0° 353° (N) 3,380 6.3 -15.9°
